Voltar ao catálogo

FENGYUN 1C DEB

LostSSO
NORAD 37041·DEBRIS·🇨🇳 China

Lançado May 10, 1999 de Taiyuan Satellite Launch Center

Loading…

Próximas Passagens (próximas 24 horas)

TLE

ObsoletoSource: Space-Track

Época: Jun 22, 2022, 10:52 UTC

1 37041U 99025EDZ 22173.45295771  .00001814  00000-0  11929-2 0  9993
2 37041  98.9173  48.8319 0160017 247.7926 110.6194 13.97117019748694

Acompanhe FENGYUN 1C DEB em tempo real com AllMySat

Download on the App Store